Total_Precipitation_Accumulation
0.00 0.00 0.01 0.01 0.01 0.02 0.02 0.05 0.12 0.19 0.13 0.13 0.23 0.43 0.50 0.56 0.63 0.82 0.98 0.98 1.05 1.16 1.51 1.94 2.41 2.93 3.56 4.40 5.27 5.52 5.17 4.59 4.04 3.52 2.92 2.43 2.12 1.90 1.84 1.59 1.27 1.17 1.15 1.12
0.01 0.02 0.02 0.02 0.02 0.04 0.05 0.07 0.12 0.16 0.11 0.13 0.20 0.42 0.60 0.71 0.84 0.83 0.88 0.98 0.96 1.17 1.57 2.05 2.62 3.04 3.37 3.87 4.56 4.71 4.27 3.64 2.98 2.54 2.28 2.05 1.89 1.57 1.39 1.33 1.18 0.96 0.97 0.98
0.01 0.03 0.02 0.02 0.02 0.05 0.07 0.08 0.12 0.15 0.08 0.13 0.20 0.49 0.77 0.89 0.75 0.62 0.55 0.66 0.71 0.90 1.40 2.10 2.60 2.89 3.16 3.34 3.28 3.32 3.07 2.54 2.18 1.96 1.81 1.72 1.69 1.47 1.22 1.09 0.94 0.79 0.74 0.74
0.01 0.02 0.01 0.02 0.03 0.04 0.07 0.05 0.05 0.05 0.06 0.20 0.30 0.76 1.00 0.90 0.75 0.61 0.48 0.48 0.52 0.76 1.23 1.96 2.23 2.29 2.37 2.46 2.24 2.17 2.17 1.97 1.85 1.70 1.51 1.31 1.13 1.01 0.91 0.88 0.80 0.73 0.66 0.62
0.02 0.02 0.02 0.02 0.03 0.04 0.05 0.04 0.04 0.07 0.11 0.25 0.43 0.73 1.02 0.85 0.80 0.61 0.45 0.41 0.48 0.62 0.91 1.25 1.29 1.39 1.49 1.58 1.56 1.61 1.82 1.84 1.72 1.65 1.61 1.48 1.18 0.97 0.89 0.87 0.85 0.77 0.71 0.64
0.04 0.04 0.03 0.03 0.02 0.03 0.04 0.05 0.11 0.23 0.34 0.66 0.67 0.73 1.05 0.89 0.69 0.47 0.38 0.41 0.37 0.43 0.60 0.80 0.85 0.88 0.95 0.99 1.05 1.19 1.55 1.70 1.63 1.55 1.51 1.41 1.27 1.11 0.95 0.83 0.75 0.70 0.71 0.71
0.10 0.08 0.08 0.06 0.05 0.06 0.05 0.09 0.26 0.60 1.00 1.12 0.69 0.71 1.00 0.64 0.43 0.32 0.26 0.28 0.32 0.41 0.50 0.63 0.78 0.79 0.73 0.72 0.78 0.91 1.10 1.21 1.25 1.31 1.38 1.36 1.34 1.21 1.02 0.89 0.73 0.67 0.65 0.65
0.14 0.15 0.11 0.07 0.05 0.06 0.07 0.09 0.18 0.36 0.46 0.59 0.59 0.97 1.08 0.55 0.36 0.26 0.19 0.20 0.28 0.33 0.36 0.39 0.49 0.49 0.49 0.54 0.57 0.65 0.77 0.85 0.94 1.04 1.14 1.21 1.18 1.09 0.95 0.94 0.79 0.67 0.61 0.63
0.06 0.06 0.04 0.04 0.06 0.06 0.06 0.06 0.07 0.08 0.14 0.35 0.65 0.87 0.76 0.48 0.32 0.22 0.17 0.14 0.17 0.19 0.19 0.20 0.21 0.23 0.27 0.37 0.48 0.57 0.64 0.69 0.77 0.84 0.96 1.02 1.01 0.96 0.95 0.92 0.79 0.71 0.74 0.73
0.03 0.03 0.03 0.04 0.05 0.07 0.07 0.06 0.06 0.05 0.15 0.33 0.58 0.87 0.88 0.58 0.39 0.27 0.18 0.15 0.15 0.15 0.13 0.14 0.14 0.13 0.14 0.18 0.33 0.48 0.54 0.64 0.75 0.80 0.78 0.79 0.90 0.89 0.89 0.86 0.77 0.79 0.80 0.77
0.02 0.02 0.02 0.03 0.05 0.07 0.06 0.06 0.06 0.06 0.08 0.19 0.44 0.65 0.54 0.39 0.24 0.21 0.17 0.14 0.15 0.16 0.14 0.13 0.12 0.11 0.12 0.14 0.23 0.34 0.43 0.52 0.60 0.64 0.66 0.77 0.83 0.83 0.82 0.81 0.76 0.77 0.75 0.76
0.03 0.02 0.02 0.06 0.07 0.07 0.06 0.06 0.07 0.09 0.09 0.13 0.24 0.33 0.26 0.25 0.21 0.19 0.18 0.17 0.20 0.21 0.18 0.16 0.14 0.10 0.10 0.13 0.17 0.25 0.29 0.32 0.35 0.42 0.49 0.60 0.73 0.73 0.73 0.75 0.81 0.82 0.78 0.71
0.03 0.02 0.04 0.14 0.20 0.15 0.08 0.06 0.09 0.10 0.10 0.12 0.27 0.40 0.26 0.22 0.25 0.27 0.23 0.26 0.25 0.21 0.20 0.20 0.18 0.13 0.10 0.12 0.15 0.20 0.21 0.26 0.28 0.34 0.39 0.49 0.62 0.70 0.72 0.74 0.78 0.80 0.78 0.75
0.05 0.04 0.05 0.16 0.22 0.22 0.17 0.13 0.12 0.12 0.12 0.11 0.19 0.35 0.28 0.25 0.32 0.31 0.24 0.27 0.26 0.23 0.23 0.27 0.26 0.18 0.14 0.15 0.18 0.20 0.23 0.26 0.28 0.33 0.41 0.48 0.56 0.68 0.76 0.77 0.78 0.81 0.85 0.83
0.06 0.06 0.05 0.05 0.10 0.16 0.19 0.15 0.13 0.10 0.10 0.12 0.14 0.23 0.29 0.40 0.39 0.31 0.31 0.34 0.28 0.29 0.26 0.24 0.27 0.20 0.18 0.18 0.20 0.21 0.23 0.27 0.29 0.34 0.42 0.47 0.56 0.63 0.69 0.76 0.80 0.87 0.91 0.87
0.09 0.08 0.07 0.06 0.10 0.12 0.13 0.16 0.12 0.08 0.07 0.08 0.11 0.20 0.30 0.35 0.40 0.38 0.31 0.29 0.34 0.38 0.31 0.31 0.33 0.29 0.25 0.23 0.22 0.21 0.25 0.34 0.41 0.49 0.52 0.53 0.59 0.67 0.67 0.72 0.76 0.87 0.92 0.97
0.16 0.16 0.16 0.15 0.15 0.15 0.16 0.15 0.11 0.09 0.10 0.11 0.12 0.18 0.27 0.37 0.42 0.45 0.44 0.37 0.38 0.49 0.47 0.54 0.60 0.48 0.36 0.31 0.30 0.29 0.34 0.41 0.48 0.57 0.69 0.72 0.74 0.78 0.81 0.85 0.88 0.93 1.07 1.14
0.25 0.26 0.23 0.21 0.24 0.28 0.18 0.14 0.13 0.11 0.13 0.14 0.18 0.25 0.31 0.43 0.49 0.54 0.61 0.59 0.52 0.48 0.50 0.58 0.62 0.62 0.56 0.51 0.47 0.48 0.52 0.57 0.67 0.79 0.89 0.98 1.03 1.09 1.15 1.21 1.17 1.20 1.27 1.34
0.27 0.36 0.34 0.32 0.38 0.32 0.24 0.21 0.20 0.21 0.25 0.27 0.36 0.49 0.55 0.58 0.68 0.78 0.71 0.61 0.58 0.57 0.56 0.66 0.65 0.63 0.62 0.71 0.71 0.67 0.69 0.73 0.87 1.02 1.13 1.19 1.25 1.34 1.39 1.37 1.43 1.53 1.63 1.65
0.32 0.34 0.43 0.39 0.44 0.45 0.40 0.36 0.35 0.42 0.68 0.58 0.63 0.65 0.60 0.61 0.81 0.79 0.61 0.55 0.55 0.56 0.62 0.69 0.73 0.71 0.75 0.89 0.89 0.88 0.92 0.98 1.01 1.03 1.13 1.30 1.48 1.58 1.57 1.58 1.70 1.88 2.03 2.00
0.54 0.55 0.51 0.46 0.48 0.44 0.44 0.42 0.49 0.81 1.05 0.89 0.83 0.78 0.73 0.80 0.83 0.80 0.66 0.54 0.52 0.52 0.57 0.64 0.69 0.74 0.76 0.87 0.96 1.07 1.19 1.21 1.21 1.25 1.32 1.42 1.58 1.73 1.75 1.81 1.86 1.98 2.10 2.11
0.75 0.77 0.73 0.69 0.77 0.75 0.51 0.55 0.81 1.00 0.85 0.89 1.00 1.03 1.01 0.94 0.82 0.71 0.62 0.56 0.49 0.46 0.46 0.53 0.65 0.73 0.77 0.89 1.09 1.21 1.32 1.39 1.45 1.52 1.66 1.68 1.74 1.74 1.70 1.81 1.91 2.00 2.10 2.07
0.86 0.87 0.87 0.88 0.95 0.84 0.67 0.73 0.72 0.70 0.80 0.87 0.93 1.06 1.06 0.97 0.98 0.84 0.74 0.69 0.58 0.51 0.49 0.53 0.61 0.71 0.77 0.85 1.00 1.25 1.31 1.35 1.42 1.52 1.61 1.70 1.73 1.76 1.76 1.82 1.90 2.03 2.07 2.04
0.87 0.81 0.89 0.99 0.99 0.89 0.82 0.81 0.75 0.68 0.72 0.77 0.86 0.92 0.94 0.91 0.99 0.94 0.78 0.64 0.57 0.52 0.47 0.50 0.59 0.69 0.74 0.70 0.76 0.89 0.99 1.06 1.13 1.22 1.30 1.35 1.44 1.53 1.68 1.85 1.87 1.92 1.99 2.05
0.86 0.82 0.91 1.11 1.19 1.20 1.10 1.00 0.94 0.84 0.83 0.88 0.91 0.91 0.91 0.78 0.79 0.81 0.70 0.57 0.49 0.44 0.39 0.43 0.54 0.57 0.59 0.64 0.63 0.66 0.73 0.91 1.03 1.05 1.09 1.17 1.29 1.40 1.55 1.72 1.80 1.74 1.77 1.90
0.94 0.90 0.90 1.08 1.11 1.27 1.30 1.14 1.02 0.92 0.94 0.97 0.95 0.88 0.81 0.70 0.63 0.55 0.47 0.40 0.39 0.36 0.38 0.42 0.48 0.49 0.49 0.55 0.57 0.58 0.68 0.86 1.00 1.03 1.02 1.05 1.08 1.20 1.34 1.47 1.54 1.46 1.30 1.31